Overview Statistics Trail Chart Weather Telemetry Raw packets
 

This is the latest recevied weather packets stored in our database for station/object N9DMT-13. If no packets are shown the sender has not sent any weather packets the latest 10 day(s).

<< 13 14 15 16 17 18 19 >>
Time Temp. Humidity Pressure Rain* Wind** Luminosity Snow
1777777675 5° C 81% 981.4 hPa 0 mm - - -
1777777374 5.56° C 81% 981.3 hPa 0 mm - - -
1777777073 5.56° C 81% 981.3 hPa 0 mm - - -
1777776773 5.56° C 81% 981.4 hPa 0 mm - - -
1777776472 6.11° C 79% 981.3 hPa 0 mm - - -
1777776171 6.11° C 78% 981.2 hPa 0 mm - - -
1777775870 6.11° C 78% 981.5 hPa 0 mm - - -
1777775569 6.11° C 78% 981.4 hPa 0 mm - - -
1777775268 6.67° C 78% 981.4 hPa 0 mm - - -
1777774967 6.67° C 76% 981.5 hPa 0 mm - - -
1777774666 6.67° C 76% 981.4 hPa 0 mm - - -
1777774366 6.67° C 76% 981.6 hPa 0 mm - - -
1777774065 7.22° C 74% 981.5 hPa 0 mm - - -
1777773764 7.22° C 73% 981.3 hPa 0 mm - - -
1777773463 7.22° C 72% 981.3 hPa 0 mm - - -
1777773163 7.78° C 73% 981.3 hPa 0 mm - - -
1777772862 7.78° C 70% 981.4 hPa 0 mm - - -
1777772561 8.33° C 69% 981.3 hPa 0 mm - - -
1777772261 8.33° C 65% 981.3 hPa 0 mm - - -
1777771960 8.89° C 64% 981.3 hPa 0 mm - - -
1777771659 9.44° C 65% 981.3 hPa 0 mm - - -
1777771359 9.44° C 61% 981.2 hPa 0 mm - - -
1777771058 10° C 58% 981.2 hPa 0 mm - - -
1777770757 10° C 55% 981.2 hPa 0 mm - - -
1777770456 10.56° C 56% 981.3 hPa 0 mm - - -

* Rain latest hour (hover to see other rain measurements)
** Current wind speed in m/s (hover to see current wind gust speed)